Regional Weather Roundup
Issued by NWS

Home | Current Version | Previous Version | Text Only | Print | Product List | Glossary On
Versions: 1 2 3 4 5 6 7 8 9 10 11 12 13 14 15 16 17 18 19 20 21 22 23 24 25 26 27 28 29 30 31 32 33 34 35 36 37 38 39 40 41 42 43 44 45 46 47 48 49 50
000
ASUS43 KDTX 030210
RWRMI
MICHIGAN HOURLY REGIONAL WEATHER ROUNDUP
NATIONAL WEATHER SERVICE DETROIT/PONTIAC MI
1000 PM EDT WED SEP 02 2015

NOTE: "FAIR" INDICATES FEW OR NO CLOUDS BELOW 12,000 FEET WITH NO
SIGNIFICANT WEATHER AND/OR OBSTRUCTION TO VISIBILITY.

MIZ047>049-052>055-059>063-066>070-074>076-081>083-030300-
SOUTHEAST LOWER MICHIGAN

CITY           SKY/WX    TMP DP  RH WIND       PRES   REMARKS
ADRIAN         MOCLDY    74  68  81 CALM      30.01R
ALMA           PTCLDY    74  71  89 NE7       29.99S
ANN ARBOR      PTCLDY    74  68  81 W5        30.00R
BAD AXE        LGT RAIN  70  67  90 N9        30.00S
DETROIT CITY   MOCLDY    79  66  64 CALM      29.98S
DETROIT        PTCLDY    80  64  58 SE3       29.99R
FLINT          PTCLDY    78  67  68 N6        30.00R
GROSSE ILE     PTCLDY    75  70  83 CALM      29.98S
HILLSDALE      PTCLDY    72  71  99 CALM      30.03S
HOWELL         CLEAR     76  69  80 W5        30.00S

CITY           SKY/WX    TMP DP  RH WIND       PRES   REMARKS
JACKSON        PTCLDY    73  70  90 CALM      30.01S
LAMBERTVILLE   CLEAR     73  70  90 CALM      30.01R FOG
LANSING        PTCLDY    77  69  76 CALM      30.01R
LAPEER         NOT AVBL
MASON          CLEAR     73  69  87 CALM      30.01S
MONROE         PTCLDY    73  70  92 CALM      29.99R
MT. CLEMENS    CLOUDY    74  69  81 SW2       29.96S
PONTIAC        PTCLDY    73  71  93 CALM      29.99S
PORT HOPE        N/A     72  70  93 W7        29.99R
PORT HURON     CLOUDY    72  70  94 CALM      29.98R
TRI CITIES     MOCLDY    72  65  78 E3        30.00F
YPSILANTI      PTCLDY    78  69  73 CALM      30.00R
$$
MIZ043>046-050>051-056>058-064>065-071>073-077>080-030300-
SOUTHWEST LOWER MICHIGAN

CITY           SKY/WX    TMP DP  RH WIND       PRES   REMARKS
BATTLE CREEK   PTCLDY    76  70  82 CALM      30.02R
BENTON HARBOR  PTCLDY    76  69  79 CALM      29.98R
BIG RAPIDS     MOCLDY    73  70  91 CALM      29.99R
COLDWATER      CLEAR     71  70  96 CALM      30.01S
HOLLAND        PTCLDY    74  70  87 S3        29.98S
GRAND RAPIDS   CLOUDY    75  70  84 SE3       29.99R
KALAMAZOO      PTCLDY    73  68  84 CALM      30.00R
MARSHALL       PTCLDY    72  70  92 CALM      30.01R
MUSKEGON       MOCLDY    76  69  79 SE3       29.96S
$$
MIZ016>042-030300-
NORTHERN LOWER MICHIGAN

CITY           SKY/WX    TMP DP  RH WIND       PRES   REMARKS
ALPENA         CLOUDY    68  66  93 SW3       29.99R
BEAVER ISLAND  CLOUDY    71  69  94 S7        29.96R
BELLAIRE       MOCLDY    72  68  87 SE6       29.95F
CADILLAC       PTCLDY    69  65  88 CALM      30.00S
CHARLEVOIX     CLOUDY    71  70  97 N3        29.99R FOG
FRANKFORT      MOCLDY    72  69  90 CALM      29.96R
GAYLORD        MOCLDY    67  66  97 SE3       29.98F
GRAYLING       MOCLDY    66  63  88 SE3       30.00F
HARBOR SPRINGS LGT RAIN  71  68  91 W3        29.94F
HOUGHTON LAKE  PTCLDY    67  65  93 E5        30.00F
MANISTEE       MOCLDY    73  68  83 NE6       29.97R
OSCODA         CLOUDY    72  70  95 W5        29.98R
PELLSTON       LGT RAIN  73  68  84 NE9       29.96F
TRAVERSE CITY  CLOUDY    74  68  81 CALM      29.95F
$$
MIZ007>008-015-030300-
EASTERN UPPER MICHIGAN

CITY           SKY/WX    TMP DP  RH WIND       PRES   REMARKS
KINROSS        MOCLDY    66  63  88 NW5       29.99R
MACKINAC ISLAN CLOUDY    69  66  91 NW5       29.99R
NEWBERRY       CLOUDY    68  66  94 CALM      29.97F
S. S. MARIE    MOCLDY    64  62  93 W3        29.98R
$$
MIZ004>006-011>014-085-030300-
CENTRAL UPPER MICHIGAN

CITY           SKY/WX    TMP DP  RH WIND       PRES   REMARKS
MANISTIQUE     LGT RAIN  69  68  94 E3        29.95F
ESCANABA       CLOUDY    70  70 100 CALM      29.93R VSB 1
MENOMINEE      PTCLDY    64  61  88 SE9       29.92S
SAWYER-GWINN   LGT RAIN  66  64  94 N3        29.99R
$$
MIZ001>003-009>011-084-030300-
WESTERN UPPER MICHIGAN

CITY           SKY/WX    TMP DP  RH WIND       PRES   REMARKS
IRON MOUNTAIN  HVY RAIN  68  66  93 NE7       29.96S FOG
HOUGHTON       MOCLDY    64  63  96 E7        29.98R FOG
COPPER HARBOR    N/A     65  62  90 VRB5      29.97S
IRONWOOD       PTCLDY    63  63 100 CALM      29.95R
$$

ABBREVIATIONS USED IN REMARKS
   TC - TEMPERATURE IN CELSIUS
  WCI - WIND CHILL INDEX
   HX - HEAT INDEX
  VSB - VISIBILITY




USA.gov is the U.S. government's official web portal to all federal, state and local government web resources and services.